Zurück zum Katalog

CZ-6A DEB

AktivPO
NORAD 55205·DEBRIS·🇨🇳 China

Gestartet Nov 11, 2022 von Taiyuan Satellite Launch Center

Loading…

Nächste Überflüge (nächste 24 Stunden)

TLE

AktuellSource: Space-Track

Epoche: Sep 13, 2026, 22:08 UTC

1 55205U 22151VW  26256.92256462  .00006014  00000-0  10020-2 0  9991
2 55205  98.6116 324.0616 0068066   6.6942 353.5155 14.68880337198042

Verfolge CZ-6A DEB in Echtzeit mit AllMySat

Download on the App Store